Weather in Pychim

Russia / Komi Republic     61°57′52″N   50°22′08″E
temp.,
°C
wind,
m/s
gust,
m/s
humid.,
%
clouds,
%
prec.,
mm/h
press.,
hPa
HPBL,
m
22 october, fri
fri2200:00+2wsw3996100 0.0 986464
03:00+2s2999100 0.1 986277
06:00+4s3899100 0.0 985316
09:00+5s41198100 0.1 983410
12:00+7s41298100 3.9 980505
15:00+8sw5149499 5.4 979977
18:00+8wsw6138870 0.6 981935
21:00+6wsw4138610 0.8 984644
23 october, sat
sat2300:00+4wsw41288100 0.0 986576
03:00+4wsw4129096 0.0 987645
06:00+4wsw51081100 0.1 9891011
09:00+3wsw31097100 1.9 9901067
12:00+3wsw51197100 0.4 993944
15:00+3wsw4997100 0.5 996814
18:00+3wsw3898100 0.2 999787
21:00+1nne2598100 1.4 1001281
24 october, sun
sun2400:000ne249586 0.5 1003308
03:000ne2497100 0.8 1004234
06:00−1ne269597 0.3 1005330
09:000ne3685100 0.4 1005437
12:00+1nne357598 0.0 1006723
15:000n3681100 0.0 1007596
18:00−1nnw3787100 0.0 1008454
21:00−2nw3785100 0.0 1009421
25 october, mon
mon2500:00−2wnw3891100 0.0 1010448
03:00−2wnw478782 0.1 1011659
06:00−2wnw3783100 0.1 1012951
09:00−1w498998 0.2 1012854
12:00−1w498499 0.2 1013943
15:00−1nw497883 0.6 1014870
18:00−3nw498776 0.0 1017577
21:00−1nw467299 0.0 1017926
26 october, tue
tue2600:00−4w269526 0.0 1018206
03:00−4sw129686 0.0 101881
06:00−4s2595100 0.0 1017151
09:00−2s268598 0.0 1016327
12:00−1s3575100 0.0 1015689
15:00−1se379592 0.3 1013471
18:00−2se389673 0.3 1012351
21:00−2se3797100 0.4 1011282